STARLINK-35028, 65381

Orbit data source: Space-Track

STARLINK-35028, 65381 is a payload satellite owned by SpaceX/Seattle (US) in SSO that was launched on Sat, 30 Aug 2025 UTC via an FALCON 9 launch vehicle from the Air Force Western Test Range (AFWTR). Payload-class satellites include a variety of spacecraft equipped with specific instruments for various scientific and technological missions. These include communications satellites like Starlink; space stations such as the ISS; scientific satellites like the Hubble; Earth observation satellites from companies like Planet Labs, Umbra, and HawkEye 360; GPS; miniature CubeSats for education and research; and military/defense satellites.

Loading next visibility...
Identifier
65381, 2025-191C
Orbit
SSO
Country
Flag of USUS
Related business
Manufacturer
SpaceX/Seattle
Mission
Operational Commercial Communications
Bus & Motor
STARLINK V2MO, Unknown motor
Mass
575 kg wet, ~530 kg dry
Launch date (UTC)
2025-08-30 (7 months ago)
Launch vehicle
FALCON 9
Launch site
Air Force Western Test Range (AFWTR)
Object type
Payload
Rocket body
Debris
Shape & HBR
Box + 2 Pan, 17.7 m
Radar Cross Section
36.964 m², Large (>1 m²)

Expand to show TLE details & history
Last TLE update: 15 hours ago

TLE from 15 hours ago
0 STARLINK-35028
1 65381U 25191C   26093.60877324  .00009447  00000-0  65789-3 0  9990
2 65381  97.6021 326.1562 0002496  93.7523 266.3990 15.05660170 34020
Epoch: 2026-04-03T14:36Z
TLE epoch observation values (Epoch: 2026-04-03T14:36:38.007Z)
Latitude
0.00003°
Longitude
-84.94262°
Altitude
552.654 km
Speed
7.585 km/s
True Right ascension
21h 44m 37s
True Declination
0° 00' 00"
Sunlit
Object was in daylight at epoch
Visualization orbit readout
Latitude
Unknown
Longitude
Unknown
Altitude
Unknown
Speed
Unknown
Apparent Right ascension
Unknown
Apparent Declination
Unknown
Sunlit
N/A
Visualization observer readout
Local Sidereal Time
11:23:02
Azimuth
Unknown
Elevation
Unknown
Doppler factor
Unknown
Orbital elements
Apogee altitude
548.202 km
Perigee altitude
544.745 km
Semi-major axis
6,924.61 km
Eccentricity
0.00025
Inclination
97.6021°
RAAN
326.1562°
Arg. of periapsis
93.7523°
True anomaly
266.37045°
Mean anomaly
266.399°
Eccentric anomaly
266.38473°
Mean motion
3.76661 °/min
Orbital period
95.58 mins
BSTAR
0.00065789
Loading maneuver chart data...
Computing Atmospheric mass density...
Loading historical data...
Loading historical data...
Loading historical data...
Loading historical data...
Loading historical data...
Loading historical data...
Loading historical data...

Documentation

Showing up to 5 results
|